Location: Houston
(29.7631°N, 95.3631°W)
Time: 21:41:20
(UTC-06:00)

Envisat - Pass Details

Date: 24 October 2019
Orbit: 764 x 766 km, 98.1° (Epoch: 17 November)

Event Time Altitude Azimuth Distance (km) Brightness Sun altitude
Rises 19:56:45 0° 180° (S) 3,216 6.3 -16.9°
Reaches altitude 10° 19:59:07 10° 185° (S) 2,294 5.6 -17.4°
Maximum altitude 20:04:00 49° 260° (W) 980 4.0 -18.5°
Drops below altitude 10° 20:08:55 10° 335° (NNW) 2,305 5.7 -19.5°
Sets 20:11:18 0° 341° (NNW) 3,234 6.5 -20.0°
